Radiation Dose at Monitoring Post of Fukushima Daini Nuclear Power Station
Date,Time,MP-1(microSv/h),MP-2(microSv/h),MP-3(microSv/h),MP-4(microSv/h),MP-5(microSv/h),MP-6(microSv/h),MP-7(microSv/h),Wind Direction,Wind Velocity(m/s),Rain
2015/02/01,00:00,0.480,0.339,0.548,0.482,0.474,0.235,0.216,west-northwest,6.5,No
2015/02/01,00:10,0.478,0.338,0.548,0.483,0.475,0.236,0.217,northwest,5.2,No
2015/02/01,00:20,0.480,0.338,0.548,0.482,0.475,0.235,0.217,west-northwest,10.3,No
2015/02/01,00:30,0.479,0.339,0.548,0.484,0.475,0.237,0.217,west-northwest,12.1,No
2015/02/01,00:40,0.480,0.338,0.548,0.482,0.475,0.236,0.217,west-northwest,10.8,No
2015/02/01,00:50,0.480,0.339,0.549,0.483,0.476,0.235,0.216,northwest,8.4,No
2015/02/01,01:00,0.480,0.340,0.548,0.483,0.474,0.236,0.216,northwest,7.3,No
2015/02/01,01:10,0.480,0.339,0.547,0.484,0.474,0.236,0.216,northwest,7.3,No
2015/02/01,01:20,0.480,0.340,0.549,0.484,0.475,0.236,0.217,northwest,8.6,No
2015/02/01,01:30,0.479,0.339,0.548,0.484,0.475,0.235,0.217,west-northwest,8.6,No
2015/02/01,01:40,0.480,0.339,0.549,0.484,0.476,0.236,0.216,north-northwest,7.8,No
2015/02/01,01:50,0.481,0.339,0.549,0.483,0.474,0.237,0.217,north-northwest,5.7,No
2015/02/01,02:00,0.480,0.339,0.548,0.485,0.475,0.237,0.216,northwest,8.7,No
2015/02/01,02:10,0.482,0.339,0.549,0.483,0.476,0.236,0.217,west-northwest,9.4,No
2015/02/01,02:20,0.482,0.339,0.548,0.485,0.476,0.235,0.216,northwest,9.0,No
2015/02/01,02:30,0.481,0.339,0.549,0.484,0.476,0.235,0.217,west-northwest,9.8,No
2015/02/01,02:40,0.480,0.341,0.549,0.484,0.477,0.236,0.217,northwest,10.7,No
2015/02/01,02:50,0.481,0.339,0.550,0.484,0.476,0.235,0.215,northwest,7.7,No
2015/02/01,03:00,0.482,0.340,0.549,0.484,0.475,0.236,0.216,west-northwest,11.7,No
2015/02/01,03:10,0.482,0.338,0.551,0.483,0.475,0.237,0.217,west,9.1,No
2015/02/01,03:20,0.481,0.338,0.550,0.486,0.477,0.237,0.217,north-northwest,6.7,No
2015/02/01,03:30,0.481,0.339,0.551,0.485,0.476,0.237,0.217,north-northwest,5.4,No
2015/02/01,03:40,0.479,0.339,0.553,0.485,0.476,0.237,0.217,north-northwest,6.7,No
2015/02/01,03:50,0.482,0.339,0.550,0.485,0.478,0.237,0.217,north,3.5,No
2015/02/01,04:00,0.483,0.340,0.551,0.486,0.477,0.235,0.218,northwest,6.1,No
2015/02/01,04:10,0.484,0.339,0.551,0.485,0.477,0.236,0.217,northwest,7.0,No
2015/02/01,04:20,0.483,0.340,0.550,0.485,0.476,0.236,0.218,west-northwest,4.9,No
2015/02/01,04:30,0.482,0.340,0.552,0.484,0.478,0.238,0.218,west-northwest,3.3,No
2015/02/01,04:40,0.483,0.340,0.550,0.485,0.478,0.237,0.217,north-northeast,4.5,No
2015/02/01,04:50,0.483,0.339,0.551,0.484,0.476,0.236,0.217,north,4.6,No
2015/02/01,05:00,0.483,0.339,0.549,0.486,0.476,0.237,0.217,north-northwest,5.0,No
2015/02/01,05:10,0.481,0.340,0.553,0.484,0.475,0.236,0.217,north,2.8,No
2015/02/01,05:20,0.480,0.339,0.553,0.486,0.479,0.236,0.216,north,6.4,No
2015/02/01,05:30,0.480,0.339,0.552,0.484,0.476,0.237,0.217,north,7.0,No
2015/02/01,05:40,0.481,0.341,0.552,0.485,0.475,0.237,0.217,north-northwest,6.4,No
2015/02/01,05:50,0.481,0.340,0.551,0.487,0.477,0.236,0.217,north-northwest,7.5,No
2015/02/01,06:00,0.481,0.340,0.551,0.485,0.477,0.237,0.217,north-northwest,1.9,No
2015/02/01,06:10,0.480,0.340,0.551,0.487,0.477,0.237,0.217,north-northwest,4.5,No
2015/02/01,06:20,0.481,0.340,0.552,0.486,0.477,0.236,0.217,north,3.6,No
2015/02/01,06:30,0.483,0.339,0.551,0.485,0.477,0.237,0.216,northwest,4.8,No
2015/02/01,06:40,0.482,0.340,0.551,0.486,0.477,0.238,0.217,north-northwest,7.4,No
2015/02/01,06:50,0.481,0.341,0.551,0.487,0.476,0.234,0.217,north-northwest,5.8,No
2015/02/01,07:00,0.482,0.340,0.551,0.485,0.477,0.237,0.218,north-northwest,5.6,No
2015/02/01,07:10,0.480,0.340,0.552,0.486,0.477,0.236,0.217,north,4.7,No
2015/02/01,07:20,0.481,0.340,0.553,0.486,0.476,0.236,0.216,north-northwest,4.5,No
2015/02/01,07:30,0.481,0.340,0.552,0.486,0.478,0.237,0.218,north-northwest,3.3,No
2015/02/01,07:40,0.480,0.339,0.554,0.487,0.478,0.237,0.217,north-northwest,1.9,No
2015/02/01,07:50,0.481,0.339,0.552,0.485,0.478,0.237,0.218,north,2.0,No
2015/02/01,08:00,0.481,0.340,0.554,0.486,0.477,0.235,0.218,north,2.5,No
2015/02/01,08:10,0.479,0.339,0.551,0.486,0.479,0.237,0.216,north-northwest,1.2,No
2015/02/01,08:20,0.482,0.341,0.552,0.487,0.478,0.236,0.217,west-northwest,1.2,No
2015/02/01,08:30,0.480,0.340,0.553,0.487,0.478,0.237,0.217,-,CALM,No
2015/02/01,08:40,0.480,0.341,0.552,0.487,0.477,0.238,0.216,north-northwest,2.0,No
2015/02/01,08:50,0.481,0.339,0.553,0.487,0.477,0.236,0.219,-,CALM,No
2015/02/01,09:00,0.482,0.341,0.552,0.487,0.477,0.237,0.217,north,1.0,No
2015/02/01,09:10,0.482,0.341,0.554,0.487,0.477,0.236,0.218,north-northwest,2.2,No
2015/02/01,09:20,0.480,0.339,0.553,0.488,0.478,0.237,0.215,west-northwest,1.2,No
2015/02/01,09:30,0.481,0.339,0.553,0.486,0.478,0.236,0.217,west-northwest,3.3,No
2015/02/01,09:40,0.482,0.340,0.553,0.487,0.478,0.236,0.216,northwest,3.0,No
2015/02/01,09:50,0.480,0.341,0.553,0.489,0.479,0.237,0.217,west-northwest,4.0,No
2015/02/01,10:00,0.479,0.342,0.552,0.488,0.478,0.236,0.217,northwest,4.4,No
2015/02/01,10:10,0.481,0.340,0.554,0.488,0.479,0.237,0.217,northwest,2.6,No
2015/02/01,10:20,0.481,0.341,0.553,0.488,0.480,0.236,0.219,northwest,4.3,No
2015/02/01,10:30,0.480,0.341,0.554,0.488,0.477,0.236,0.219,northwest,5.3,No
2015/02/01,10:40,0.482,0.341,0.554,0.489,0.478,0.237,0.218,northwest,5.4,No
2015/02/01,10:50,0.482,0.341,0.553,0.489,0.481,0.236,0.218,northwest,4.5,No
2015/02/01,11:00,0.481,0.340,0.554,0.489,0.479,0.238,0.219,north-northwest,5.8,No
2015/02/01,11:10,0.484,0.342,0.554,0.489,0.478,0.238,0.218,northwest,4.9,No
2015/02/01,11:20,0.483,0.341,0.555,0.489,0.481,0.237,0.219,north-northwest,5.3,No
2015/02/01,11:30,0.482,0.342,0.554,0.491,0.479,0.238,0.219,north-northwest,6.0,No
2015/02/01,11:40,0.484,0.343,0.554,0.491,0.478,0.238,0.219,north-northwest,6.7,No
2015/02/01,11:50,0.484,0.341,0.555,0.490,0.480,0.239,0.220,north-northwest,7.2,No
2015/02/01,12:00,0.484,0.342,0.555,0.490,0.480,0.239,0.220,north-northwest,6.3,No
2015/02/01,12:10,0.484,0.342,0.555,0.490,0.480,0.239,0.220,northwest,4.7,No
2015/02/01,12:20,0.485,0.343,0.555,0.491,0.480,0.238,0.220,northwest,4.4,No
2015/02/01,12:30,0.482,0.343,0.555,0.492,0.481,0.239,0.219,north-northwest,5.1,No
2015/02/01,12:40,0.483,0.342,0.556,0.492,0.481,0.239,0.219,northwest,7.8,No
2015/02/01,12:50,0.484,0.343,0.556,0.493,0.482,0.238,0.221,north-northwest,9.1,No
2015/02/01,13:00,0.485,0.343,0.555,0.492,0.481,0.240,0.220,north-northwest,8.5,No
2015/02/01,13:10,0.486,0.344,0.556,0.493,0.482,0.240,0.220,north-northwest,8.9,No
2015/02/01,13:20,0.487,0.345,0.557,0.494,0.484,0.240,0.220,northwest,5.4,No
2015/02/01,13:30,0.484,0.345,0.558,0.492,0.483,0.241,0.222,west-northwest,4.8,No
2015/02/01,13:40,0.486,0.344,0.557,0.495,0.484,0.241,0.219,west-northwest,4.4,No
2015/02/01,13:50,0.488,0.345,0.558,0.495,0.482,0.241,0.221,north-northwest,3.9,No
2015/02/01,14:00,0.486,0.345,0.558,0.497,0.483,0.242,0.221,north-northwest,7.3,No
2015/02/01,14:10,0.487,0.346,0.559,0.498,0.481,0.240,0.220,north-northwest,5.6,No
2015/02/01,14:20,0.488,0.345,0.559,0.498,0.483,0.241,0.222,north-northwest,7.1,No
2015/02/01,14:30,0.487,0.346,0.560,0.499,0.484,0.242,0.222,north,4.3,No
2015/02/01,14:40,0.487,0.346,0.559,0.500,0.485,0.242,0.222,north,5.6,No
2015/02/01,14:50,0.489,0.346,0.559,0.499,0.484,0.241,0.220,north,3.1,No
2015/02/01,15:00,0.489,0.346,0.559,0.499,0.484,0.242,0.223,north-northwest,1.9,No
2015/02/01,15:10,0.488,0.347,0.560,0.499,0.483,0.241,0.221,northwest,2.3,No
2015/02/01,15:20,0.491,0.348,0.561,0.500,0.483,0.243,0.223,west-northwest,4.8,No
2015/02/01,15:30,0.489,0.348,0.560,0.499,0.485,0.242,0.222,west-northwest,4.5,No
2015/02/01,15:40,0.487,0.348,0.560,0.500,0.485,0.242,0.223,northwest,3.5,No
2015/02/01,15:50,0.487,0.347,0.561,0.499,0.486,0.243,0.223,west-northwest,0.7,No
2015/02/01,16:00,0.490,0.346,0.562,0.502,0.486,0.242,0.223,east,0.6,No
2015/02/01,16:10,0.488,0.347,0.561,0.500,0.486,0.241,0.223,-,CALM,No
2015/02/01,16:20,0.489,0.347,0.560,0.500,0.487,0.242,0.222,west-northwest,1.1,No
2015/02/01,16:30,0.489,0.348,0.561,0.501,0.488,0.244,0.223,west,3.2,No
2015/02/01,16:40,0.488,0.347,0.562,0.502,0.486,0.244,0.223,west,1.7,No
2015/02/01,16:50,0.489,0.348,0.561,0.501,0.487,0.243,0.223,-,CALM,No
2015/02/01,17:00,0.488,0.349,0.562,0.500,0.485,0.244,0.223,west-northwest,0.8,No
2015/02/01,17:10,0.492,0.347,0.561,0.503,0.487,0.243,0.222,north,1.7,No
2015/02/01,17:20,0.490,0.348,0.562,0.503,0.487,0.244,0.223,northeast,0.8,No
2015/02/01,17:30,0.489,0.348,0.562,0.502,0.488,0.244,0.224,north-northwest,0.8,No
2015/02/01,17:40,0.489,0.347,0.561,0.503,0.486,0.245,0.224,-,CALM,No
2015/02/01,17:50,0.488,0.348,0.562,0.504,0.486,0.244,0.224,north,1.1,No
2015/02/01,18:00,0.487,0.349,0.562,0.503,0.487,0.244,0.223,north,1.7,No
2015/02/01,18:10,0.490,0.349,0.562,0.503,0.487,0.246,0.223,north-northwest,0.9,No
2015/02/01,18:20,0.490,0.348,0.562,0.503,0.486,0.243,0.223,north,2.5,No
2015/02/01,18:30,0.491,0.348,0.564,0.503,0.486,0.245,0.223,north,2.5,No
2015/02/01,18:40,0.489,0.349,0.564,0.504,0.486,0.245,0.224,north-northwest,1.2,No
2015/02/01,18:50,0.489,0.348,0.563,0.504,0.486,0.244,0.223,north-northwest,0.6,No
2015/02/01,19:00,0.488,0.348,0.563,0.504,0.488,0.244,0.222,north,1.0,No
2015/02/01,19:10,0.490,0.348,0.563,0.504,0.487,0.245,0.224,north-northwest,0.8,No
2015/02/01,19:20,0.489,0.349,0.563,0.504,0.487,0.245,0.223,-,CALM,No
2015/02/01,19:30,0.489,0.349,0.563,0.506,0.489,0.245,0.224,-,CALM,No
2015/02/01,19:40,0.489,0.348,0.564,0.504,0.489,0.243,0.223,-,CALM,No
2015/02/01,19:50,0.490,0.350,0.564,0.505,0.489,0.245,0.223,-,CALM,No
2015/02/01,20:00,0.490,0.348,0.562,0.503,0.487,0.244,0.223,north-northwest,0.8,No
2015/02/01,20:10,0.490,0.347,0.562,0.505,0.488,0.244,0.224,-,CALM,No
2015/02/01,20:20,0.489,0.348,0.563,0.504,0.488,0.244,0.223,-,CALM,No
2015/02/01,20:30,0.489,0.347,0.566,0.506,0.489,0.244,0.223,-,CALM,No
2015/02/01,20:40,0.490,0.348,0.565,0.504,0.489,0.245,0.224,-,CALM,No
2015/02/01,20:50,0.489,0.348,0.564,0.506,0.487,0.243,0.223,-,CALM,No
2015/02/01,21:00,0.491,0.348,0.564,0.506,0.489,0.245,0.223,southwest,1.0,No
2015/02/01,21:10,0.492,0.348,0.564,0.507,0.487,0.245,0.223,-,CALM,No
2015/02/01,21:20,0.491,0.348,0.564,0.507,0.488,0.243,0.224,north-northwest,1.0,No
2015/02/01,21:30,0.489,0.348,0.565,0.507,0.489,0.244,0.224,northwest,1.1,No
2015/02/01,21:40,0.490,0.349,0.564,0.506,0.488,0.243,0.224,west,0.9,No
2015/02/01,21:50,0.492,0.349,0.564,0.506,0.490,0.246,0.223,northwest,0.6,No
2015/02/01,22:00,0.492,0.349,0.565,0.505,0.488,0.244,0.223,-,CALM,No
2015/02/01,22:10,0.491,0.349,0.566,0.507,0.489,0.246,0.223,northwest,0.6,No
2015/02/01,22:20,0.490,0.348,0.564,0.506,0.489,0.245,0.224,north-northwest,0.6,No
2015/02/01,22:30,0.490,0.349,0.565,0.505,0.488,0.245,0.222,-,CALM,No
2015/02/01,22:40,0.492,0.348,0.566,0.505,0.489,0.244,0.223,west,0.6,No
2015/02/01,22:50,0.491,0.349,0.565,0.505,0.487,0.245,0.224,-,CALM,No
2015/02/01,23:00,0.490,0.349,0.564,0.507,0.488,0.245,0.225,northwest,1.0,No
2015/02/01,23:10,0.490,0.350,0.566,0.506,0.489,0.244,0.225,north-northeast,1.4,No
2015/02/01,23:20,0.490,0.349,0.563,0.506,0.489,0.245,0.223,-,CALM,No
2015/02/01,23:30,0.489,0.350,0.565,0.506,0.488,0.246,0.224,south-southwest,0.8,No
2015/02/01,23:40,0.490,0.349,0.565,0.506,0.489,0.246,0.223,-,CALM,No
2015/02/01,23:50,0.489,0.347,0.566,0.508,0.489,0.245,0.224,west-northwest,0.9,No
